Weather History for KEGV - February, 2014

Change the Weather History Date:

Saturday, February 22, 2014

  Actual Average Record
Temperature  
Mean Temperature 10 °F -  
Max Temperature 14 °F 29 °F 42 °F (1991)
Min Temperature 4 °F 5 °F -15 °F (2015)
Degree Days  
Heating Degree Days 56    
Moisture  
Dew Point 1 °F    
Average Humidity 70    
Maximum Humidity 76    
Minimum Humidity 61    
Precipitation  
Precipitation 0.00 in - - ()
Sea Level Pressure  
Sea Level Pressure 29.67 in    
Wind  
Wind Speed 15 mph (West)    
Max Wind Speed 22 mph    
Max Gust Speed 28 mph    
Visibility 7 miles    
Events Snow    
Averages and records for this station are not official NWS values.
T = Trace of Precipitation, MM = Missing Value Source: NWS Daily Summary

Daily Weather History Graph

Daily Weather History Graph

Search for Another Location

Airport or City:

Trip Planner

Search our weather history database for the weather conditions in past years. The results will help you decide how hot, cold, wet, or windy it might be!

Date:

Astronomy

Feb. 22, 2014 Rise Set
Actual Time 6:48 AM CST 5:33 PM CST
Civil Twilight 6:17 AM CST 6:03 PM CST
Nautical Twilight 5:43 AM CST 6:38 PM CST
Astronomical Twilight 5:08 AM CST 7:13 PM CST
Moon 12:50 AM CST (2/22) 10:36 AM CST (2/22)
Length of Visible Light 11h 46m
Length of Day
10h 45m
Waning Gibbous, 50% of the Moon is Illuminated
Feb 22
Waning Gibbous
Mar 1
New
Mar 8
First Quarter
Mar 16
Full
Mar 23
Last Quarter

Hourly Weather History & Observations

Time (CST) Temp. Windchill Dew Point Humidity Pressure Visibility Wind Dir Wind Speed Gust Speed Precip Events Conditions
12:15 AM 8.2 °F -9.4 °F 1.9 °F 76% 29.46 in 5.0 mi West 16.1 mph 20.7 mph N/A Snow Light Snow
12:35 AM 8.2 °F -6.8 °F 1.9 °F 76% 29.47 in 4.0 mi West 11.5 mph 23.0 mph N/A Snow Light Snow
12:55 AM 8.1 °F -9.6 °F 1.6 °F 75% 29.47 in 5.0 mi West 16.1 mph 21.9 mph N/A Snow Light Snow
1:15 AM 7.7 °F -9.5 °F 1.0 °F 74% 29.48 in 5.0 mi West 15.0 mph 25.3 mph N/A Snow Light Snow
1:35 AM 7.7 °F -11.2 °F 1.0 °F 74% 29.49 in 5.0 mi West 18.4 mph 24.2 mph N/A   Haze
1:50 AM 7.3 °F -11.7 °F 0.1 °F 72% 29.49 in 7.0 mi West 18.4 mph 26.5 mph N/A   Overcast
2:15 AM 6.6 °F -9.5 °F -0.4 °F 73% 29.50 in 7.0 mi West 12.7 mph 25.3 mph N/A   Overcast
2:35 AM 6.4 °F -10.5 °F -0.4 °F 74% 29.51 in 7.0 mi West 13.8 mph 21.9 mph N/A   Overcast
2:55 AM 6.4 °F -11.7 °F -0.0 °F 75% 29.51 in 5.0 mi West 16.1 mph 24.2 mph N/A   Haze
3:15 AM 5.9 °F -11.2 °F -0.6 °F 75% 29.52 in 5.0 mi West 13.8 mph 24.2 mph N/A   Haze
3:35 AM 5.9 °F -11.2 °F -0.9 °F 73% 29.53 in 7.0 mi West 13.8 mph 23.0 mph N/A   Overcast
3:55 AM 5.7 °F -12.0 °F -0.9 °F 74% 29.54 in 5.0 mi West 15.0 mph 23.0 mph N/A   Haze
4:15 AM 5.5 °F -13.5 °F -1.3 °F 73% 29.55 in 5.0 mi West 17.3 mph 24.2 mph N/A   Haze
4:35 AM 5.5 °F -11.6 °F -1.3 °F 73% 29.56 in 5.0 mi West 13.8 mph 25.3 mph N/A   Haze
4:55 AM 5.4 °F -11.8 °F -1.3 °F 74% 29.57 in 7.0 mi West 13.8 mph 21.9 mph N/A   Overcast
5:15 AM 5.5 °F -10.2 °F -1.3 °F 73% 29.58 in 7.0 mi West 11.5 mph 19.6 mph N/A   Overcast
5:35 AM 5.7 °F -11.4 °F -0.8 °F 75% 29.58 in 5.0 mi West 13.8 mph - N/A Snow Light Snow
5:55 AM 5.9 °F -10.5 °F -0.4 °F 75% 29.58 in 5.0 mi West 12.7 mph - N/A Snow Light Snow
6:15 AM 5.9 °F -11.2 °F -0.4 °F 75% 29.59 in 5.0 mi West 13.8 mph 17.3 mph N/A Snow Light Snow
6:30 AM 5.9 °F -10.5 °F -0.4 °F 75% 29.59 in 4.0 mi WSW 12.7 mph 17.3 mph N/A Snow Light Snow
6:55 AM 5.9 °F -11.2 °F -0.4 °F 75% 29.60 in 3.0 mi West 13.8 mph 19.6 mph N/A Snow Light Snow
7:15 AM 5.7 °F -11.4 °F -0.6 °F 75% 29.61 in 2.5 mi West 13.8 mph 19.6 mph N/A Snow Light Snow
7:35 AM 5.5 °F -11.6 °F -0.6 °F 76% 29.62 in 2.5 mi West 13.8 mph 19.6 mph N/A Snow Light Snow
7:55 AM 5.5 °F -10.9 °F -1.1 °F 74% 29.63 in 3.0 mi West 12.7 mph 17.3 mph N/A   Haze
8:15 AM 5.5 °F -12.3 °F -1.3 °F 73% 29.63 in 3.0 mi West 15.0 mph 25.3 mph N/A   Haze
8:35 AM 5.5 °F -12.9 °F -1.3 °F 73% 29.63 in 4.0 mi WSW 16.1 mph 20.7 mph N/A   Haze
8:55 AM 6.1 °F -12.2 °F -1.7 °F 71% 29.65 in 4.0 mi West 16.1 mph 21.9 mph N/A   Haze
9:15 AM 6.6 °F -12.1 °F -1.7 °F 69% 29.65 in 5.0 mi WSW 17.3 mph 23.0 mph N/A   Haze
9:35 AM 7.5 °F -9.7 °F -1.1 °F 68% 29.65 in 4.0 mi West 15.0 mph 21.9 mph N/A   Haze
9:55 AM 7.2 °F -10.2 °F -1.7 °F 67% 29.67 in 5.0 mi West 15.0 mph 21.9 mph N/A   Haze
10:15 AM 7.3 °F -11.7 °F -1.8 °F 66% 29.67 in 5.0 mi West 18.4 mph 21.9 mph N/A   Haze
10:35 AM 8.1 °F -9.6 °F -1.1 °F 66% 29.67 in 7.0 mi WSW 16.1 mph 21.9 mph N/A   Mostly Cloudy
10:55 AM 8.6 °F -9.5 °F -0.8 °F 66% 29.67 in 7.0 mi WSW 17.3 mph - N/A   Mostly Cloudy
11:10 AM 9.5 °F -8.3 °F -0.0 °F 65% 29.67 in 7.0 mi West 17.3 mph - N/A   Mostly Cloudy
11:35 AM 11.1 °F -7.2 °F 0.7 °F 63% 29.67 in 7.0 mi West 19.6 mph 25.3 mph N/A   Scattered Clouds
11:55 AM 11.7 °F -5.5 °F 1.4 °F 63% 29.67 in 10.0 mi West 17.3 mph 21.9 mph N/A   Mostly Cloudy
12:15 PM 12.0 °F -6.0 °F 1.4 °F 62% 29.67 in 5.0 mi West 19.6 mph 25.3 mph N/A   Haze
12:35 PM 13.3 °F -0.5 °F 2.3 °F 62% 29.67 in 10.0 mi West 11.5 mph 24.2 mph N/A   Scattered Clouds
12:55 PM 14.4 °F -3.8 °F 3.2 °F 61% 29.67 in 7.0 mi WSW 21.9 mph 25.3 mph N/A   Scattered Clouds
1:15 PM 14.0 °F -2.0 °F 3.0 °F 62% 29.68 in 10.0 mi West 16.1 mph 23.0 mph N/A   Mostly Cloudy
1:35 PM 14.7 °F -2.5 °F 3.4 °F 61% 29.68 in 7.0 mi West 19.6 mph 25.3 mph N/A   Mostly Cloudy
1:55 PM 14.2 °F -2.3 °F 3.0 °F 61% 29.69 in 10.0 mi West 17.3 mph 21.9 mph N/A   Mostly Cloudy
2:15 PM 13.6 °F -2.4 °F 3.0 °F 63% 29.69 in 7.0 mi West 16.1 mph 26.5 mph N/A   Overcast
2:35 PM 14.0 °F -2.5 °F 3.7 °F 64% 29.70 in 7.0 mi West 17.3 mph 25.3 mph N/A   Overcast
2:55 PM 14.7 °F -1.6 °F 3.7 °F 62% 29.70 in 10.0 mi West 17.3 mph 24.2 mph N/A   Overcast
3:15 PM 14.0 °F -2.5 °F 3.4 °F 63% 29.71 in 10.0 mi West 17.3 mph 21.9 mph N/A   Mostly Cloudy
3:35 PM 13.5 °F -1.5 °F 3.4 °F 64% 29.71 in 7.0 mi West 13.8 mph 27.6 mph N/A   Mostly Cloudy
3:55 PM 13.6 °F -2.4 °F 3.6 °F 64% 29.71 in 10.0 mi West 16.1 mph 23.0 mph N/A   Mostly Cloudy
4:15 PM 13.1 °F -3.1 °F 3.2 °F 65% 29.72 in 10.0 mi West 16.1 mph - N/A   Mostly Cloudy
4:35 PM 12.9 °F -2.8 °F 3.4 °F 66% 29.73 in 10.0 mi West 15.0 mph 23.0 mph N/A   Mostly Cloudy
4:55 PM 12.4 °F -2.9 °F 3.2 °F 67% 29.73 in 10.0 mi West 13.8 mph 20.7 mph N/A   Overcast
5:15 PM 11.7 °F -3.8 °F 3.2 °F 69% 29.74 in 10.0 mi West 13.8 mph 20.7 mph N/A   Overcast
5:35 PM 11.5 °F -4.7 °F 3.0 °F 69% 29.75 in 10.0 mi West 15.0 mph 20.7 mph N/A   Overcast
5:55 PM 11.1 °F -3.9 °F 2.8 °F 69% 29.75 in 10.0 mi West 12.7 mph 18.4 mph N/A   Overcast
6:15 PM 10.4 °F -4.8 °F 2.8 °F 72% 29.75 in 10.0 mi West 12.7 mph 23.0 mph N/A   Mostly Cloudy
6:35 PM 10.2 °F -5.0 °F 2.7 °F 72% 29.76 in 10.0 mi WSW 12.7 mph 18.4 mph N/A   Scattered Clouds
6:55 PM 9.7 °F -5.0 °F 2.3 °F 72% 29.77 in 10.0 mi West 11.5 mph - N/A   Scattered Clouds
7:15 PM 9.3 °F -5.4 °F 1.9 °F 72% 29.78 in 10.0 mi West 11.5 mph 20.7 mph N/A   Mostly Cloudy
7:35 PM 9.0 °F -7.9 °F 1.4 °F 71% 29.78 in 10.0 mi West 15.0 mph 20.7 mph N/A   Scattered Clouds
7:55 PM 8.4 °F -9.2 °F 1.0 °F 72% 29.79 in 10.0 mi West 16.1 mph 23.0 mph N/A   Scattered Clouds
8:15 PM 8.4 °F -6.5 °F 0.5 °F 70% 29.80 in 10.0 mi West 11.5 mph 18.4 mph N/A   Clear
8:35 PM 8.1 °F -7.7 °F 0.3 °F 71% 29.80 in 10.0 mi West 12.7 mph 19.6 mph N/A   Clear
8:55 PM 7.7 °F -8.9 °F 0.3 °F 72% 29.81 in 10.0 mi West 13.8 mph 19.6 mph N/A   Clear
9:15 PM 7.3 °F -10.0 °F -0.0 °F 72% 29.81 in 10.0 mi West 15.0 mph 19.6 mph N/A   Clear
9:35 PM 6.8 °F -9.3 °F -0.2 °F 73% 29.82 in 10.0 mi West 12.7 mph 18.4 mph N/A   Clear
9:55 PM 6.6 °F -8.8 °F -0.4 °F 73% 29.82 in 10.0 mi West 11.5 mph 17.3 mph N/A   Clear
10:15 PM 6.3 °F -11.3 °F -0.8 °F 73% 29.82 in 10.0 mi West 15.0 mph 20.7 mph N/A   Clear
10:35 PM 6.3 °F -9.2 °F -0.9 °F 72% 29.82 in 10.0 mi West 11.5 mph 18.4 mph N/A   Clear
10:55 PM 5.9 °F -10.5 °F -1.3 °F 72% 29.82 in 10.0 mi West 12.7 mph 20.7 mph N/A   Clear
11:15 PM 5.5 °F -10.9 °F -1.5 °F 73% 29.83 in 10.0 mi West 12.7 mph 19.6 mph N/A   Clear
11:35 PM 5.0 °F -10.0 °F -2.0 °F 73% 29.83 in 10.0 mi West 10.4 mph 18.4 mph N/A   Clear
11:55 PM 4.6 °F -10.4 °F -2.2 °F 73% 29.83 in 10.0 mi West 10.4 mph 18.4 mph N/A   Clear